Tracking 20242 objects as of 24-Jan-2020
HD Live streaming from Space Station
objects crossing your sky now

FENGYUN 1C DEB

Track FENGYUN 1C DEB now!
10-day predictions


NORAD ID: 32245
Int'l Code: 1999-025CWT
Perigee: 630.9 km
Apogee: 852.4 km
Inclination: 98.5 °
Period: 99.5 minutes
Semi major axis: 7112 km
RCS: 0.0014 m2 (small)
Launch date: May 10, 1999
Source: People's Republic of China (PRC)
Launch site: Taiyaun Space Center, China (TSC)

Note: This is SATELLITE DEBRIS
aabbcc
Your satellite tracking list
Your tracking list is empty




NASA's NSSDC Master Catalog

Two Line Element Set (TLE):
1 32245U 99025CWT 20024.09805194  .00000312  00000-0  85394-4 0  9994
2 32245  98.5061 131.8252 0155705  86.3307 275.5675 14.47293141661263
Source of the keplerian elements: AFSPC